• In Deutschland
  • Länderverzeichnis
  • Für 7 Tage
  • Wassertemperatur
  • Satellitenkarten
  • Wetterkarte
  • Widgets
  • user-avatar
    Anmelden

    Stündliche Wetter Sölden

    Heute, 26 März, Sonntag

    Zeit Temperatur Niederschläge Wind Luftdruck Luftfeuchtigkeit
    00:00 -3°C° 0 mm 1 m/S 579 mmHg 91%
    01:00 -4°C° 0 mm 1 m/S 579 mmHg 92%
    02:00 -4°C° 0 mm 1 m/S 578 mmHg 92%
    03:00 -4°C° 0 mm 1 m/S 578 mmHg 92%
    04:00 -4°C° 0 mm 1 m/S 578 mmHg 92%
    05:00 -4°C° 0 mm 1 m/S 578 mmHg 91%
    06:00 -4°C° 0 mm 1 m/S 578 mmHg 90%
    07:00 -4°C° 0 mm 1 m/S 578 mmHg 88%
    08:00 -2°C° 0 mm 1 m/S 579 mmHg 83%
    09:00 +1°C° 0 mm 1 m/S 581 mmHg 78%
    10:00 +4°C° 0 mm 1 m/S 582 mmHg 73%
    11:00 +4°C° 0,1 mm 1 m/S 582 mmHg 73%
    12:00 +3°C° 0,1 mm 2 m/S 583 mmHg 72%
    13:00 +3°C° 0,1 mm 2 m/S 583 mmHg 72%
    14:00 +3°C° 0,3 mm 2 m/S 583 mmHg 74%
    15:00 +3°C° 0,3 mm 2 m/S 582 mmHg 76%
    16:00 +2°C° 0,3 mm 2 m/S 582 mmHg 78%
    17:00 +1°C° 0,4 mm 2 m/S 582 mmHg 83%
    18:00 -2°C° 0,4 mm 2 m/S 582 mmHg 88%
    19:00 -2°C° 0,4 mm 1 m/S 582 mmHg 93%
    20:00 -2°C° 0,1 mm 1 m/S 582 mmHg 93%
    21:00 -3°C° 0,1 mm 1 m/S 582 mmHg 94%
    22:00 -4°C° 0,1 mm 1 m/S 582 mmHg 95%
    23:00 -4°C° 0 mm 1 m/S 582 mmHg 95%

    Morgen, 27 März, Montag

    Zeit Temperatur Niederschläge Wind Luftdruck Luftfeuchtigkeit
    00:00 -4°C° 0 mm 1 m/S 582 mmHg 94%
    01:00 -4°C° 0 mm 1 m/S 582 mmHg 94%
    02:00 -6°C° 0 mm 1 m/S 582 mmHg 94%
    03:00 -6°C° 0 mm 1 m/S 582 mmHg 94%
    04:00 -6°C° 0 mm 1 m/S 582 mmHg 93%
    05:00 -6°C° 0 mm 1 m/S 582 mmHg 91%
    06:00 -4°C° 0 mm 1 m/S 582 mmHg 89%
    07:00 -4°C° 0 mm 1 m/S 583 mmHg 87%
    08:00 -2°C° 0 mm 1 m/S 584 mmHg 81%
    09:00 0°C° 0 mm 1 m/S 584 mmHg 75%
    10:00 +2°C° 0 mm 1 m/S 585 mmHg 69%
    11:00 +3°C° 0 mm 1 m/S 586 mmHg 67%
    12:00 +4°C° 0 mm 1 m/S 586 mmHg 64%
    13:00 +5°C° 0 mm 1 m/S 586 mmHg 62%
    14:00 +5°C° 0 mm 1 m/S 586 mmHg 65%
    15:00 +4°C° 0 mm 1 m/S 586 mmHg 67%
    16:00 +4°C° 0 mm 1 m/S 586 mmHg 69%
    17:00 +2°C° 0 mm 1 m/S 584 mmHg 77%
    18:00 -1°C° 0 mm 1 m/S 583 mmHg 86%
    19:00 -4°C° 0 mm 1 m/S 582 mmHg 94%
    20:00 -4°C° 0 mm 1 m/S 582 mmHg 94%
    21:00 -4°C° 0 mm 1 m/S 583 mmHg 94%
    22:00 -4°C° 0 mm 1 m/S 583 mmHg 95%
    23:00 -4°C° 0 mm 1 m/S 583 mmHg 95%

    übermorgen, 28 März, Dienstag

    Zeit Temperatur Niederschläge Wind Luftdruck Luftfeuchtigkeit
    00:00 -4°C° 0 mm 1 m/S 583 mmHg 95%
    01:00 -4°C° 0 mm 1 m/S 583 mmHg 94%
    02:00 -6°C° 0 mm 0 m/S 583 mmHg 94%
    03:00 -6°C° 0 mm 0 m/S 582 mmHg 95%
    04:00 -7°C° 0 mm 0 m/S 582 mmHg 95%
    05:00 -6°C° 0 mm 0 m/S 582 mmHg 92%
    06:00 -5°C° 0 mm 0 m/S 583 mmHg 90%
    07:00 -4°C° 0 mm 1 m/S 583 mmHg 87%
    08:00 -1°C° 0 mm 1 m/S 585 mmHg 79%
    09:00 +2°C° 0 mm 1 m/S 586 mmHg 72%
    10:00 +5°C° 0 mm 1 m/S 587 mmHg 64%
    11:00 +5°C° 0 mm 1 m/S 587 mmHg 61%
    12:00 +6°C° 0 mm 1 m/S 588 mmHg 59%
    13:00 +7°C° 0 mm 1 m/S 588 mmHg 57%
    14:00 +6°C° 0 mm 1 m/S 588 mmHg 59%
    15:00 +6°C° 0 mm 1 m/S 587 mmHg 62%
    16:00 +6°C° 0 mm 1 m/S 587 mmHg 65%
    17:00 +3°C° 0 mm 1 m/S 586 mmHg 73%
    18:00 +1°C° 0 mm 1 m/S 584 mmHg 82%
    19:00 -2°C° 0 mm 1 m/S 583 mmHg 90%
    20:00 -3°C° 0 mm 0 m/S 583 mmHg 92%
    21:00 -4°C° 0 mm 0 m/S 583 mmHg 94%
    22:00 -4°C° 0 mm 0 m/S 583 mmHg 95%
    23:00 -5°C° 0 mm 0 m/S 583 mmHg 95%

    29 März, Mittwoch

    Zeit Temperatur Niederschläge Wind Luftdruck Luftfeuchtigkeit
    00:00 -5°C° 0 mm 0 m/S 583 mmHg 95%
    01:00 -5°C° 0 mm 0 m/S 583 mmHg 95%
    02:00 -5°C° 0 mm 0 m/S 583 mmHg 94%
    03:00 -4°C° 0 mm 1 m/S 583 mmHg 93%
    04:00 -4°C° 0 mm 1 m/S 583 mmHg 93%
    05:00 -3°C° 0 mm 1 m/S 583 mmHg 91%
    06:00 -3°C° 0 mm 1 m/S 584 mmHg 89%
    07:00 -2°C° 0 mm 1 m/S 584 mmHg 86%
    08:00 0°C° 0 mm 1 m/S 585 mmHg 78%
    09:00 +3°C° 0 mm 1 m/S 586 mmHg 70%
    10:00 +5°C° 0 mm 1 m/S 587 mmHg 62%
    11:00 +6°C° 0 mm 1 m/S 588 mmHg 59%
    12:00 +6°C° 0 mm 1 m/S 588 mmHg 56%
    13:00 +7°C° 0 mm 1 m/S 588 mmHg 54%
    14:00 +7°C° 0 mm 1 m/S 588 mmHg 56%
    15:00 +6°C° 0 mm 1 m/S 587 mmHg 58%
    16:00 +6°C° 0 mm 1 m/S 587 mmHg 59%
    17:00 +3°C° 0 mm 1 m/S 585 mmHg 68%
    18:00 0°C° 0 mm 1 m/S 584 mmHg 77%
    19:00 -3°C° 0 mm 0 m/S 582 mmHg 86%
    20:00 -4°C° 0 mm 0 m/S 582 mmHg 87%
    21:00 -4°C° 0 mm 0 m/S 582 mmHg 87%
    22:00 -5°C° 0 mm 0 m/S 582 mmHg 88%
    23:00 -5°C° 0 mm 0 m/S 582 mmHg 86%

    30 März, Donnerstag

    Zeit Temperatur Niederschläge Wind Luftdruck Luftfeuchtigkeit
    00:00 -4°C° 0 mm 1 m/S 582 mmHg 83%
    01:00 -4°C° 0 mm 1 m/S 582 mmHg 81%
    02:00 -4°C° 0 mm 1 m/S 582 mmHg 79%
    03:00 -4°C° 0 mm 1 m/S 582 mmHg 78%
    04:00 -4°C° 0 mm 1 m/S 582 mmHg 76%
    05:00 -3°C° 0 mm 1 m/S 582 mmHg 75%
    06:00 -3°C° 0 mm 1 m/S 583 mmHg 74%
    07:00 -2°C° 0 mm 1 m/S 583 mmHg 72%
    08:00 0°C° 0 mm 1 m/S 585 mmHg 66%
    09:00 +3°C° 0 mm 1 m/S 586 mmHg 59%
    10:00 +5°C° 0 mm 1 m/S 587 mmHg 53%
    11:00 +6°C° 0 mm 1 m/S 587 mmHg 51%
    12:00 +7°C° 0 mm 1 m/S 587 mmHg 49%
    13:00 +7°C° 0 mm 1 m/S 587 mmHg 48%
    14:00 +7°C° 0 mm 1 m/S 586 mmHg 50%
    15:00 +7°C° 0 mm 1 m/S 586 mmHg 52%
    16:00 +6°C° 0 mm 1 m/S 586 mmHg 55%
    17:00 +4°C° 0 mm 1 m/S 584 mmHg 64%
    18:00 +1°C° 0 mm 1 m/S 583 mmHg 73%
    19:00 -1°C° 0 mm 1 m/S 582 mmHg 82%
    20:00 -2°C° 0 mm 1 m/S 582 mmHg 83%
    21:00 -2°C° 0 mm 1 m/S 582 mmHg 84%
    22:00 -2°C° 0 mm 1 m/S 582 mmHg 85%
    23:00 -2°C° 0 mm 1 m/S 582 mmHg 86%

    31 März, Freitag

    Zeit Temperatur Niederschläge Wind Luftdruck Luftfeuchtigkeit
    00:00 -2°C° 0 mm 1 m/S 582 mmHg 87%
    01:00 -3°C° 0 mm 1 m/S 582 mmHg 88%
    02:00 -3°C° 0 mm 1 m/S 582 mmHg 89%
    03:00 -3°C° 0 mm 1 m/S 582 mmHg 89%
    04:00 -3°C° 0 mm 1 m/S 581 mmHg 90%
    05:00 -2°C° 0 mm 1 m/S 581 mmHg 88%
    06:00 -2°C° 0 mm 1 m/S 582 mmHg 85%
    07:00 -2°C° 0 mm 1 m/S 582 mmHg 82%
    08:00 0°C° 0 mm 1 m/S 583 mmHg 74%
    09:00 +2°C° 0 mm 1 m/S 583 mmHg 65%
    10:00 +4°C° 0 mm 1 m/S 584 mmHg 56%
    11:00 +3°C° 0 mm 2 m/S 584 mmHg 55%
    12:00 +4°C° 0 mm 2 m/S 583 mmHg 55%
    13:00 +4°C° 0 mm 2 m/S 583 mmHg 54%
    14:00 +4°C° 0,1 mm 2 m/S 583 mmHg 57%
    15:00 +4°C° 0,1 mm 2 m/S 582 mmHg 59%
    16:00 +4°C° 0,1 mm 2 m/S 582 mmHg 62%
    17:00 +2°C° 0 mm 2 m/S 581 mmHg 71%
    18:00 -1°C° 0 mm 2 m/S 580 mmHg 81%
    19:00 -3°C° 0 mm 2 m/S 579 mmHg 90%
    20:00 -3°C° 0 mm 2 m/S 579 mmHg 91%
    21:00 -1°C° 0 mm 1 m/S 579 mmHg 93%
    22:00 -1°C° 0 mm 1 m/S 579 mmHg 94%
    23:00 -2°C° 0,1 mm 1 m/S 579 mmHg 95%
    Mehr zeigen